Погода в Ирнуре

Россия / Республика Марий Эл     56°41′31″N   49°17′45″E
темп.,
°C
ветер,
м/с
пор.,
м/с
влажн.,
%
обл.,
%
осадки,
мм/ч
давл.,
гПа
погр.,
м
10 апреля, сб
сб1000:00−2з1197100 0.0 102810
03:00−3с11966 0.0 103010
06:00−7св2299100 0.0 103122
09:000всв2399100 0.0 1031148
12:00+1всв35100100 0.1 1031223
15:00+1св37100100 1.6 1030298
18:00+1св38100100 2.9 1028242
21:00+1св23100100 4.2 102792
11 апреля, вс
вс1100:00+1с23100100 0.1 102684
03:00+1ссв12100100 0.1 102762
06:00+1ссв24100100 2.1 1028106
09:00+1ссз25100100 3.4 1029156
12:00+3ссз24100100 0.0 1031160
15:00+2ссз12100100 0.0 1032137
18:000сз11100100 0.0 103416
21:00−1с1195100 0.0 103510
12 апреля, пн
пн1200:00−1ссв2293100 0.0 103616
03:000св2391100 0.0 103745
06:00+1всв2591100 0.0 103893
09:00+3всв3798100 0.0 1038196
12:00+7в4684100 0.0 1038362
15:00+8в3784100 0.0 1037494
18:00+4в3790100 0.0 1036127
21:00+3в349280 0.0 103670
13 апреля, вт
вт1300:00+2вюв359380 0.0 103559
03:00+2юв229699 0.0 103529
06:00+3ююв359898 0.0 103487
09:00+10ю468455 0.0 1032234
12:00+14ю467310 0.0 1031547
15:00+15ю466750 0.0 1030816
18:00+11ююв388093 0.0 1029126
21:00+8ю367724 0.0 102971
14 апреля, ср
ср1400:00+6ююз36775 0.0 102870
03:00+5ююз368031 0.0 102876
06:00+6ююз38812 0.0 1027120
09:00+12ююз47615 0.0 1026307
12:00+17ююз56475 0.0 1025785
15:00+18ююз56436 0.0 10241029
18:00+14ююз366292 0.0 1022108
21:00+10ююз3772100 0.0 1022113